Weather History for EIDW - June, 2012

Change the Weather History Date:

Thursday, June 21, 2012

  Actual Average Record
Temperature  
Mean Temperature 54 °F -  
Max Temperature 58 °F 65 °F 69 °F (2002)
Min Temperature 50 °F 52 °F 42 °F (1999)
Degree Days  
Heating Degree Days 11    
Growing Degree Days 4 (Base 50)    
Moisture  
Dew Point 53 °F    
Average Humidity 97    
Maximum Humidity 100    
Minimum Humidity 88    
Precipitation  
Precipitation 0.20 in 0.07 in - ()
Sea Level Pressure  
Sea Level Pressure 29.62 in    
Wind  
Wind Speed 8 mph ()    
Max Wind Speed 18 mph    
Max Gust Speed -    
Visibility 4.7 miles    
Events Rain    
Averages and records for this station are not official NWS values.
T = Trace of Precipitation, MM = Missing Value Source: Averaged Metar Reports

Daily Weather History Graph

Daily Weather History Graph

Search for Another Location

Airport or City:

Trip Planner

Search our weather history database for the weather conditions in past years. The results will help you decide how hot, cold, wet, or windy it might be!

Date:

Astronomy

Jun. 21, 2012 Rise Set
Actual Time 4:56 AM IST 9:57 PM IST
Civil Twilight 4:03 AM IST 10:50 PM IST
Nautical Twilight 2:28 AM IST 12:25 AM IST
Astronomical Twilight Sun does not set Sun does not set
Moon 6:57 AM IST (6/21) 10:50 PM IST (6/21)
Length of Visible Light 18h 46m
Length of Day
17h 01m
Waxing Crescent, 3% of the Moon is Illuminated
Jun 21
Waxing Crescent
Jun 27
First Quarter
Jul 3
Full
Jul 11
Last Quarter
Jul 19
New

Hourly Weather History & Observations

Time (IST) Temp. Dew Point Humidity Pressure Visibility Wind Dir Wind Speed Gust Speed Precip Events Conditions
12:00 AM 53.6 °F 51.8 °F 94% 29.86 in 6.2 mi North 3.5 mph - N/A   Light Drizzle
12:30 AM 53.6 °F 51.8 °F 94% 29.83 in 6.2 mi NNE 6.9 mph - N/A Rain Light Rain
1:00 AM 53 °F 52 °F 94% 29.84 in 12 mi NE 4.5 mph - - Rain Light Rain
1:00 AM 53.6 °F 51.8 °F 94% 29.83 in 6.2 mi NE 3.5 mph - N/A Rain Light Rain
1:30 AM 51.8 °F 51.8 °F 100% 29.80 in 6.2 mi NE 4.6 mph - N/A Rain Light Rain
2:00 AM 51.8 °F 51.8 °F 100% 29.80 in 6.2 mi NE 4.6 mph - N/A Rain Light Rain
2:30 AM 51.8 °F 51.8 °F 100% 29.77 in 6.2 mi NE 5.8 mph - N/A Rain Light Rain
3:00 AM 53.6 °F 51.8 °F 94% 29.74 in 6.2 mi ENE 8.1 mph - N/A Rain Light Rain
3:30 AM 53.6 °F 53.6 °F 100% 29.74 in 6.2 mi NE 8.1 mph - N/A Rain Light Rain
4:00 AM 53.6 °F 53.6 °F 100% 29.71 in 6.2 mi ENE 10.4 mph - N/A Rain Light Rain
4:30 AM 53.6 °F 53.6 °F 100% 29.71 in 6.2 mi ENE 12.7 mph - N/A Rain Light Rain
5:00 AM 53.6 °F 53.6 °F 100% 29.68 in 6.2 mi ENE 13.8 mph - N/A Rain Light Rain
5:30 AM 53.6 °F 53.6 °F 100% 29.68 in 5.0 mi ENE 12.7 mph - N/A Rain Light Rain
6:00 AM 53.6 °F 53.6 °F 100% 29.68 in 5.0 mi East 16.1 mph - N/A Rain Light Rain
6:30 AM 53.6 °F 53.6 °F 100% 29.65 in 2.8 mi East 16.1 mph - N/A Rain Light Rain
7:00 AM 53 °F 53 °F 98% 29.67 in 2 mi East 17.9 mph - - Rain Light Rain
7:00 AM 53.6 °F 51.8 °F 94% 29.65 in 2.5 mi East 18.4 mph - N/A Rain Light Rain
7:30 AM 53.6 °F 51.8 °F 94% 29.65 in 2.2 mi East 17.3 mph - N/A Rain Light Rain
8:00 AM 51.8 °F 51.8 °F 100% 29.65 in 3.1 mi East 16.1 mph - N/A Rain Light Rain
8:30 AM 51.8 °F 51.8 °F 100% 29.65 in 2.5 mi East 18.4 mph - N/A Rain Light Rain
9:00 AM 51.8 °F 50.0 °F 94% 29.62 in 2.8 mi East 15.0 mph - N/A Rain Light Rain
9:30 AM 50.0 °F 50.0 °F 100% 29.62 in 3.1 mi East 15.0 mph - N/A Rain Light Rain
10:00 AM 51.8 °F 50.0 °F 94% 29.62 in 3.7 mi East 18.4 mph - N/A Rain Light Rain
10:30 AM 51.8 °F 50.0 °F 94% 29.59 in 2.5 mi East 18.4 mph - N/A   Light Drizzle
11:00 AM 51.8 °F 51.8 °F 100% 29.59 in 1.7 mi East 16.1 mph - N/A   Light Drizzle
11:30 AM 51.8 °F 51.8 °F 100% 29.59 in 1.9 mi East 12.7 mph - N/A   Light Drizzle
12:00 PM 51.8 °F 51.8 °F 100% 29.59 in 1.6 mi East 12.7 mph - N/A   Light Drizzle
12:30 PM 53.6 °F 51.8 °F 94% 29.59 in - East 9.2 mph - N/A   Light Drizzle
1:00 PM 53 °F 53 °F 100% 29.60 in 4 mi ESE 4.5 mph - - Rain Light Drizzle
1:00 PM 53.6 °F 53.6 °F 100% 29.59 in 4.3 mi ESE 4.6 mph - N/A   Mostly Cloudy
1:30 PM 53.6 °F 53.6 °F 100% 29.59 in 4.3 mi SE 9.2 mph - N/A   Mostly Cloudy
2:00 PM 55.4 °F 53.6 °F 94% 29.56 in 5.0 mi ESE 9.2 mph - N/A   Mostly Cloudy
2:30 PM 57.2 °F 53.6 °F 88% 29.56 in 5.6 mi SE 10.4 mph - N/A   Mostly Cloudy
3:00 PM 55.4 °F 53.6 °F 94% 29.56 in 6.2 mi SE 10.4 mph - N/A   Mostly Cloudy
3:30 PM 57.2 °F 53.6 °F 88% 29.56 in 6.2 mi ESE 11.5 mph - N/A   Mostly Cloudy
4:00 PM 57.2 °F 53.6 °F 88% 29.56 in 6.2 mi SE 11.5 mph - N/A   Mostly Cloudy
4:30 PM 57.2 °F 53.6 °F 88% 29.53 in 6.2 mi SE 11.5 mph - N/A   Mostly Cloudy
5:00 PM 57.2 °F 53.6 °F 88% 29.53 in 6.2 mi SE 10.4 mph - N/A   Mostly Cloudy
5:30 PM 55.4 °F 53.6 °F 94% 29.53 in 6.2 mi ESE 8.1 mph - N/A   Mostly Cloudy
6:00 PM 55.4 °F 53.6 °F 94% 29.53 in 6.2 mi SE 6.9 mph - N/A   Mostly Cloudy
6:30 PM 55.4 °F 53.6 °F 94% 29.53 in 3.7 mi ESE 4.6 mph - N/A   Light Drizzle
7:00 PM 54 °F 54 °F 98% 29.54 in 2 mi ESE 4.5 mph - - Rain Light Drizzle
7:00 PM 55.4 °F 53.6 °F 94% 29.53 in 1.9 mi ESE 5.8 mph - N/A   Light Drizzle
7:30 PM 53.6 °F 53.6 °F 100% 29.53 in 2.2 mi Variable 2.3 mph - N/A Rain Light Rain
8:00 PM 53.6 °F 53.6 °F 100% 29.53 in 5.6 mi Calm Calm - N/A Rain Light Rain
8:30 PM 53.6 °F 53.6 °F 100% 29.53 in 6.2 mi Calm Calm - N/A Rain Light Rain
9:00 PM 53.6 °F 53.6 °F 100% 29.53 in 5.0 mi Variable 3.5 mph - N/A Rain Light Rain
9:30 PM 53.6 °F 53.6 °F 100% 29.53 in 5.0 mi North 1.2 mph - N/A Rain Light Rain
10:00 PM 53.6 °F 53.6 °F 100% 29.53 in 4.3 mi Variable 2.3 mph - N/A Rain Light Rain
10:30 PM 53.6 °F 53.6 °F 100% 29.53 in 4.3 mi North 3.5 mph - N/A Rain Light Rain
11:00 PM 53.6 °F 53.6 °F 100% 29.53 in 4.3 mi North 3.5 mph - N/A Rain Light Rain
11:30 PM 53.6 °F 53.6 °F 100% 29.53 in 5.6 mi NW 4.6 mph - N/A Rain Light Rain